Погода в Бохиконе

Бенин     7°10′30″N   2°03′55″E
темп.,
°C
ветер,
м/с
пор.,
м/с
влажн.,
%
обл.,
%
осадки,
мм/ч
давл.,
гПа
погр.,
м
12 мая, ср
ср1201:00+25ююз38884 0.3 1012391
04:00+24юз27905 0.0 1011289
07:00+24ююз27896 0.0 1012312
10:00+30ююз45595 0.0 1013824
13:00+34ююз33436 0.0 10111680
16:00+36юз233743 0.0 10082319
19:00+30ю49595 0.3 1008459
22:00+25ю410854 0.4 1012407
13 мая, чт
чт1301:00+24сз129015 0.4 101358
04:00+24юз279385 0.0 1011315
07:00+24юз3992100 0.0 1010422
10:00+28ююз4571100 0.0 1012747
13:00+32ююз345198 0.0 10101278
16:00+35ююз434050 0.0 10072100
19:00+28ю39678 0.6 1008234
22:00+25ю410823 0.4 1011423
14 мая, пт
пт1401:00+24ююз28905 0.4 1010302
04:00+24ююз27945 0.0 1010273
07:00+24юз389352 0.0 1010324
10:00+30ююз566315 0.0 1011930
13:00+36ююв344263 0.0 10092217
16:00+36ю3340100 0.0 10061920
19:00+31ю585756 0.1 1008625
22:00+26ююз49875 0.8 1010381
15 мая, сб
сб1501:00+25ююз39925 0.8 1010403
04:00+25юз389518 0.0 1009412
07:00+24юз279540 0.0 1011371
10:00+29юз457044 0.0 1012836
13:00+35юз224550 0.0 10101926
16:00+36ююв334178 0.0 10072042
19:00+30ю585743 0.1 1008478
22:00+27ююз410745 0.1 1010452
16 мая, вс
вс1601:00+25ююз2890100 1.2 1011398
04:00+24зюз1193100 0.0 101051
07:00+25ссв118997 3.3 101225
10:00+26юз498199 0.0 1010430
13:00+31ю2256100 0.0 1010993
16:00+33юв4449100 0.0 10081738
19:00+29ююз2566100 0.1 1009146
22:00+25ююз3882100 0.4 1011336